Weather History for Walhalla, ND

Change the Weather History Date:

Sunday, June 16, 2013

  Actual Average (KGAF) Record (KGAF)
Temperature  
Mean Temperature 65 °F -  
Max Temperature 71 °F 77 °F 94 °F (1987)
Min Temperature 59 °F 51 °F 38 °F (1976)
Growing Degree Days 15 (Base 50)    
Moisture  
Dew Point 52 °F    
Average Humidity 61    
Maximum Humidity 88    
Minimum Humidity 46    
Precipitation  
Precipitation 0.00 in - - ()
Sea Level Pressure  
Sea Level Pressure 29.81 in    
Wind  
Wind Speed 8 mph (WNW)    
Max Wind Speed 17 mph    
Max Gust Speed 30 mph    
Visibility 10 miles    
Events      
Averages and records for this station are not official NWS values.
T = Trace of Precipitation, MM = Missing Value Source: NWS Daily Summary

Daily Weather History Graph

Daily Weather History Graph

Search for Another Location

Airport:

Trip Planner

Search our weather history database for the weather conditions in past years. The results will help you decide how hot, cold, wet, or windy it might be!

Date:

Astronomy

Jun. 16, 2013 Rise Set
Actual Time 5:27 AM CDT 9:37 PM CDT
Civil Twilight 4:44 AM CDT 10:20 PM CDT
Nautical Twilight 3:43 AM CDT 11:21 PM CDT
Astronomical Twilight 2:04 AM CDT 1:00 AM CDT
Moon 1:42 PM CDT (6/16) 1:08 AM CDT (6/16)
Length of Visible Light 17h 36m
Length of Day
16h 10m
Waxing Crescent, 50% of the Moon is Illuminated
Jun 16
Waxing Crescent
Jun 16
First Quarter
Jun 23
Full
Jun 29
Last Quarter
Jul 8
New

Hourly Weather History & Observations

Time (CDT) Temp. Dew Point Humidity Pressure Visibility Wind Dir Wind Speed Gust Speed Precip Events Conditions
12:15 AM 64.4 °F 51.8 °F 64% 29.79 in 10.0 mi West 8.1 mph - N/A   Mostly Cloudy
12:35 AM 64.4 °F 50.0 °F 59% 29.78 in 10.0 mi West 6.9 mph - N/A   Clear
12:55 AM 64.4 °F 50.0 °F 59% 29.78 in 10.0 mi West 8.1 mph - N/A   Partly Cloudy
1:15 AM 64.4 °F 50.0 °F 59% 29.78 in 10.0 mi West 8.1 mph - N/A   Scattered Clouds
1:35 AM 62.6 °F 51.8 °F 68% 29.78 in 10.0 mi West 5.8 mph - N/A   Scattered Clouds
1:55 AM 62.6 °F 51.8 °F 68% 29.78 in 10.0 mi West 5.8 mph - N/A   Partly Cloudy
2:15 AM 62.6 °F 53.6 °F 72% 29.78 in 10.0 mi West 4.6 mph - N/A   Partly Cloudy
2:35 AM 60.8 °F 53.6 °F 77% 29.78 in 10.0 mi WSW 6.9 mph - N/A   Partly Cloudy
2:55 AM 60.8 °F 53.6 °F 77% 29.78 in 10.0 mi WSW 5.8 mph - N/A   Clear
3:15 AM 62.6 °F 50.0 °F 63% 29.78 in 10.0 mi West 5.8 mph - N/A   Partly Cloudy
3:35 AM 62.6 °F 50.0 °F 63% 29.78 in 10.0 mi West 6.9 mph - N/A   Scattered Clouds
3:55 AM 60.8 °F 50.0 °F 68% 29.78 in 10.0 mi West 6.9 mph - N/A   Partly Cloudy
4:15 AM 60.8 °F 50.0 °F 68% 29.78 in 10.0 mi West 4.6 mph - N/A   Partly Cloudy
4:35 AM 60.8 °F 50.0 °F 68% 29.78 in 10.0 mi Calm Calm - N/A   Partly Cloudy
4:55 AM 59.0 °F 50.0 °F 72% 29.78 in 10.0 mi West 3.5 mph - N/A   Clear
5:15 AM 60.8 °F 50.0 °F 68% 29.78 in 10.0 mi WSW 4.6 mph - N/A   Clear
5:35 AM 60.8 °F 50.0 °F 68% 29.79 in 10.0 mi WSW 4.6 mph - N/A   Clear
5:55 AM 60.8 °F 51.8 °F 72% 29.79 in 10.0 mi WSW 4.6 mph - N/A   Clear
6:15 AM 60.8 °F 51.8 °F 72% 29.79 in 10.0 mi WSW 3.5 mph - N/A   Clear
6:35 AM 60.8 °F 53.6 °F 77% 29.79 in 10.0 mi WSW 4.6 mph - N/A   Clear
6:55 AM 62.6 °F 53.6 °F 72% 29.80 in 10.0 mi WSW 6.9 mph - N/A   Clear
7:15 AM 62.6 °F 53.6 °F 72% 29.80 in 10.0 mi WSW 5.8 mph - N/A   Clear
7:35 AM 64.4 °F 53.6 °F 68% 29.79 in 10.0 mi West 5.8 mph - N/A   Clear
7:55 AM 64.4 °F 53.6 °F 68% 29.79 in 10.0 mi West 8.1 mph - N/A   Clear
8:15 AM 66.2 °F 51.8 °F 60% 29.79 in 10.0 mi WNW 6.9 mph - N/A   Clear
8:35 AM 66.2 °F 53.6 °F 64% 29.80 in 10.0 mi West 8.1 mph - N/A   Clear
8:55 AM 68.0 °F 51.8 °F 56% 29.79 in 10.0 mi WNW 12.7 mph 18.4 mph N/A   Clear
9:15 AM 68.0 °F 51.8 °F 56% 29.79 in 10.0 mi West 8.1 mph 16.1 mph N/A   Clear
9:35 AM 68.0 °F 51.8 °F 56% 29.80 in 10.0 mi WNW 6.9 mph - N/A   Clear
9:55 AM 68.0 °F 50.0 °F 52% 29.79 in 10.0 mi West 11.5 mph 18.4 mph N/A   Clear
10:15 AM 69.8 °F 50.0 °F 49% 29.79 in 10.0 mi West 13.8 mph 19.6 mph N/A   Clear
10:35 AM 69.8 °F 50.0 °F 49% 29.79 in 10.0 mi WNW 11.5 mph 25.3 mph N/A   Clear
10:55 AM 71.6 °F 50.0 °F 46% 29.79 in 10.0 mi West 10.4 mph 24.2 mph N/A   Clear
11:15 AM 71.6 °F 50.0 °F 46% 29.78 in 10.0 mi West 13.8 mph 21.9 mph N/A   Partly Cloudy
11:35 AM 69.8 °F 50.0 °F 49% 29.79 in 10.0 mi WNW 13.8 mph 20.7 mph N/A   Mostly Cloudy
11:55 AM 68.0 °F 50.0 °F 52% 29.79 in 10.0 mi West 11.5 mph 23.0 mph N/A   Overcast
12:15 PM 69.8 °F 50.0 °F 49% 29.79 in 10.0 mi West 12.7 mph 19.6 mph N/A   Overcast
12:35 PM 69.8 °F 51.8 °F 53% 29.80 in 10.0 mi WNW 11.5 mph 20.7 mph N/A   Overcast
12:55 PM 71.6 °F 50.0 °F 46% 29.79 in 10.0 mi WNW 15.0 mph 23.0 mph N/A   Overcast
1:15 PM 69.8 °F 50.0 °F 49% 29.80 in 10.0 mi WNW 17.3 mph 28.8 mph N/A   Overcast
1:35 PM 69.8 °F 50.0 °F 49% 29.80 in 10.0 mi WNW 17.3 mph 29.9 mph N/A   Mostly Cloudy
1:55 PM 69.8 °F 50.0 °F 49% 29.80 in 10.0 mi WNW 16.1 mph 25.3 mph N/A   Overcast
2:15 PM 68.0 °F 50.0 °F 52% 29.80 in 10.0 mi West 15.0 mph 26.5 mph N/A   Overcast
2:35 PM 69.8 °F 51.8 °F 53% 29.81 in 10.0 mi WNW 13.8 mph 28.8 mph N/A   Overcast
2:55 PM 68.0 °F 51.8 °F 56% 29.81 in 10.0 mi WNW 13.8 mph 18.4 mph N/A   Overcast
3:15 PM 71.6 °F 51.8 °F 50% 29.81 in 10.0 mi NW 17.3 mph 23.0 mph N/A   Overcast
3:35 PM 69.8 °F 51.8 °F 53% 29.81 in 10.0 mi West 11.5 mph 19.6 mph N/A   Overcast
3:55 PM 69.8 °F 51.8 °F 53% 29.81 in 10.0 mi NW 13.8 mph 18.4 mph N/A   Overcast
4:15 PM 69.8 °F 51.8 °F 53% 29.81 in 10.0 mi NNW 12.7 mph 17.3 mph N/A   Overcast
4:35 PM 69.8 °F 50.0 °F 49% 29.82 in 10.0 mi NW 10.4 mph - N/A   Overcast
4:55 PM 71.6 °F 51.8 °F 50% 29.82 in 10.0 mi WNW 8.1 mph - N/A   Overcast
5:15 PM 71.6 °F 53.6 °F 53% 29.82 in 10.0 mi NW 13.8 mph - N/A   Overcast
5:35 PM 69.8 °F 51.8 °F 53% 29.82 in 10.0 mi WNW 11.5 mph - N/A   Overcast
5:55 PM 71.6 °F 50.0 °F 46% 29.82 in 10.0 mi WNW 8.1 mph - N/A   Mostly Cloudy
6:15 PM 71.6 °F 53.6 °F 53% 29.82 in 10.0 mi West 11.5 mph 18.4 mph N/A   Mostly Cloudy
6:35 PM 69.8 °F 53.6 °F 56% 29.82 in 10.0 mi WNW 10.4 mph 18.4 mph N/A   Overcast
6:55 PM 69.8 °F 53.6 °F 56% 29.82 in 10.0 mi WNW 9.2 mph 18.4 mph N/A   Mostly Cloudy
7:15 PM 69.8 °F 53.6 °F 56% 29.82 in 10.0 mi NW 8.1 mph - N/A   Mostly Cloudy
7:35 PM 69.8 °F 53.6 °F 56% 29.82 in 10.0 mi NW 9.2 mph - N/A   Partly Cloudy
7:55 PM 69.8 °F 53.6 °F 56% 29.83 in 10.0 mi NW 9.2 mph - N/A   Clear
8:15 PM 69.8 °F 53.6 °F 56% 29.83 in 10.0 mi NW 11.5 mph - N/A   Clear
8:35 PM 68.0 °F 53.6 °F 60% 29.83 in 10.0 mi WNW 5.8 mph - N/A   Clear
8:55 PM 66.2 °F 55.4 °F 68% 29.83 in 10.0 mi NW 5.8 mph - N/A   Mostly Cloudy
9:15 PM 66.2 °F 55.4 °F 68% 29.84 in 10.0 mi NW 4.6 mph - N/A   Mostly Cloudy
9:35 PM 64.4 °F 55.4 °F 73% 29.84 in 10.0 mi NW 3.5 mph - N/A   Mostly Cloudy
9:55 PM 64.4 °F 57.2 °F 77% 29.85 in 10.0 mi NW 4.6 mph - N/A   Overcast
10:15 PM 64.4 °F 57.2 °F 77% 29.86 in 10.0 mi NNW 4.6 mph - N/A   Overcast
10:35 PM 64.4 °F 57.2 °F 77% 29.86 in 10.0 mi NNW 5.8 mph - N/A   Overcast
10:55 PM 64.4 °F 57.2 °F 77% 29.86 in 10.0 mi NW 8.1 mph - N/A   Overcast
11:15 PM 62.6 °F 57.2 °F 82% 29.87 in 10.0 mi NNW 6.9 mph - N/A   Overcast
11:35 PM 62.6 °F 57.2 °F 82% 29.87 in 10.0 mi NNW 9.2 mph - N/A   Overcast
11:55 PM 60.8 °F 57.2 °F 88% 29.87 in 10.0 mi NW 5.8 mph - N/A   Mostly Cloudy